Regional Weather Roundup
Issued by NWS

Home | Current Version | Previous Version | Graphics & Text | Print | Product List | Glossary On
Versions: 1 2 3 4 5 6 7 8 9 10 11 12 13 14 15 16 17 18 19 20 21 22 23 24 25 26 27 28 29 30 31 32 33 34 35 36 37 38 39 40 41 42 43 44 45 46 47 48 49 50
000
ASUS43 KMKX 250400
RWRWI

WISCONSIN REGIONAL WEATHER ROUNDUP
NATIONAL WEATHER SERVICE MILWAUKEE/SULLIVAN WI
1100 PM CDT FRI OCT 24 2014

NOTE: "FAIR" INDICATES FEW OR NO CLOUDS BELOW 12,000 FEET WITH NO
SIGNIFICANT WEATHER AND/OR OBSTRUCTIONS TO VISIBILITY.

WIZ001-002-006>008-014>016-023>028-250500-
NORTHWEST WISCONSIN

CITY           SKY/WX    TMP DP  RH WIND       PRES   REMARKS
SUPERIOR ARPT  MOCLDY    58  49  74 SW9       29.76R
ASHLAND        MOCLDY    57  52  83 SW10      29.75F
HAYWARD        MOCLDY    53  51  93 SW7       29.81S FOG
SIREN          PTCLDY    56  52  86 SW6       29.81F
CUMBERLAND     CLOUDY    52  52 100 SW5       29.84S FOG
RICE LAKE      CLOUDY    55  53  92 S6        29.86S FOG
CHETEK         CLOUDY    56  55  96 S5        29.85F FOG
LADYSMITH      CLOUDY    56  55  94 SW8       29.86F FOG
EAU CLAIRE     FOG       51  51 100 SW5       29.85F VSB 1/4
MENOMONIE      FOG       51  51  99 CALM      29.86S VSB<1/4
NEW RICHMOND   CLEAR     51  51 100 S5        29.85S FOG
OSCEOLA        FOG       49  49 100 CALM      29.87S VSB 3/4
$$

WIZ003>005-009-010-017-018-250500-
NORTH CENTRAL WISCONSIN

CITY           SKY/WX    TMP DP  RH WIND       PRES   REMARKS
MANITOWISH WTR CLOUDY    54  52  92 SW9       29.79F
ARBOR VITAE    CLOUDY    57  53  87 SW9       29.81F
WOODRUFF       CLOUDY    57  53  87 SW9       29.81F
RHINELANDER    CLOUDY    53  51  93 SW10      29.83F
EAGLE RIVER    CLOUDY    53  47  82 SW9       29.81F
LAND O LAKES   PTCLDY    54  49  84 SW9       29.80F
PHILLIPS       CLOUDY    55  52  92 SW8       29.82F
TOMAHAWK       CLOUDY    54  52  93 CALM      29.85S FOG
MEDFORD        CLOUDY    54  53  97 SW8       29.86S FOG
MERRILL        CLOUDY    56  54  95 W10       29.85R
$$

WIZ029-030-035-036-043>047-250500-
CENTRAL WISCONSIN

CITY           SKY/WX    TMP DP  RH WIND       PRES   REMARKS
WAUSAU         CLOUDY    56  53  90 W8        29.85S
MOSINEE        CLOUDY    54  54 100 SW8       29.87S
MARSHFIELD     CLOUDY    57  54  89 W10       29.87S FOG
STEVENS POINT  CLOUDY    55  53  94 SW7       29.86F
WAUPACA        CLOUDY    58  54  85 SW7       29.86F
WAUTOMA        NOT AVBL
WISC RAPIDS    CLOUDY    57  55  93 W7        29.89S
CAMP DOUGLAS   NOT AVBL
$$

WIZ011>013-019>022-031-037>040-048>050-250500-
NORTHEAST WISCONSIN

CITY           SKY/WX    TMP DP  RH WIND       PRES   REMARKS
ANTIGO         CLOUDY    53  51  92 W9        29.85R
SHAWANO        CLOUDY    54  51  89 SW3       29.84F
OCONTO         PTCLDY    49  49 100 S3        29.84F
STURGEON BAY   CLOUDY    52  48  87 S10       29.85F
GREEN BAY      CLOUDY    55  51  86 S7        29.85F
MANITOWOC      CLOUDY    54  52  94 S7        29.88F
APPLETON       CLOUDY    54  50  87 SW6       29.86F
CLINTONVILLE   MOCLDY    50  48  93 S6        29.84F
OSHKOSH        MOCLDY    55  51  86 SW8       29.86F
$$

WIZ032>034-041-042-053>061-250500-
SOUTHWEST WISCONSIN

CITY           SKY/WX    TMP DP  RH WIND       PRES   REMARKS
LA CROSSE      CLOUDY    59  56  89 S6        29.89S
SPARTA           N/A     52  51  97 CALM      29.90S FOG
VIROQUA        CLOUDY    55  55 100 SW5       29.91S
BOSCOBEL       MOCLDY    58  55  90 SW7       29.92F FOG
PRAIRIE DU CHI CLOUDY    59  56  92 SW5       29.92S FOG
PLATTEVILLE    CLOUDY    58  56  94 SW6       29.94S
$$

WIZ056-057-062-063-064-067-068-250500-
SOUTH CENTRAL WISCONSIN

CITY           SKY/WX    TMP DP  RH WIND       PRES   REMARKS
REEDSBURG      CLOUDY    58  56  94 SW6       29.89F
BARABOO/DELLS  CLOUDY    57  53  86 SW6       29.89F FOG
LONE ROCK      MOCLDY    60  54  80 W3        29.91F HAZE
MINERAL POINT  CLOUDY    59  55  88 W8        29.93S FOG
MADISON        MOCLDY    55  50  83 CALM      29.90F
MIDDLETON      CLOUDY    59  51  75 CALM      29.91F
WATERTOWN      MOCLDY    53  51  92 SW3       29.90F
MONROE         CLOUDY    55  52  88 SW7       29.92S
JANESVILLE     MOCLDY    55  46  71 CALM      29.92R
$$

WIZ051-052-058>065-066-070>072-250500-
SOUTHEAST WISCONSIN

CITY           SKY/WX    TMP DP  RH WIND       PRES   REMARKS
MILWAUKEE      CLOUDY    56  50  80 S7        29.91F
WAUKESHA       CLOUDY    54  50  87 S6        29.92S
MILWAUKEE/TIMM CLOUDY    55  48  76 S5        29.91S
RACINE         CLOUDY    55  51  86 S5        29.93F FOG
BURLINGTON     CLOUDY    52  51  96 CALM      29.92S
KENOSHA        CLOUDY    55  51  86 SW3       29.92F FOG
FOND DU LAC    CLOUDY    56  49  77 SW10      29.88F
SHEBOYGAN      CLOUDY    53  50  89 S6        29.88F
WEST BEND      CLOUDY    57  48  72 SW7       29.89F
JUNEAU         CLOUDY    53  50  89 SW5       29.91F
$$

LSZ147-162-250500-
LAKE SUPERIOR

STATION/POSITION TIME  TEMP    WIND        PRES    WAVE
                       AIR SEA DIR/SP/G            HT/PER
                 (UTC) (F)     (DEG/KT/KT) (MB)    (FT/S)
W MID LAKE BUOY  0250   52 47  220/ 21/ 23 1004.3F   3/ 4
DEVILS ISLAND    0300   58     230/ 21/ 25 1005.4F
PORT WING        0300   59     200/ 12/ 16 1006.8
SAXON HARBOR     0300   59     200/  9/ 15 1007.1F
$$

LMZ867-665-643>646-250500-
LAKE MICHIGAN

STATION/POSITION TIME  TEMP    WIND        PRES    WAVE
                       AIR SEA DIR/SP/G            HT/PER
                 (UTC) (F)     (DEG/KT/KT) (MB)    (FT/S)
CHAMBERS ISLAND  0340   51     170/  7/ 12 1010.2F
N MID LAKE BUOY  0250   49 51  210/ 19/ 25 1010.8F   4/ 5
NORTHPORT PIER   0300   50     150/  7/ 12 1010.5F
SISTER BAY       0242          170/  8/ 11   N/A
ALGOMA LAKESHORE 0211          220/ 20/ 23   N/A
KEWAUNEE LAKESHO 0300   51     180/ 10/ 12 1011.0F
SHEBOYGAN LAKESH 0300   53 51  190/ 11/ 12 1012.7F
PORT WASHINGTON  0300   53     200/  3/  6 1013.2F
ATWATER BUOY     0300   53     140/  8/  8 1013.8F
MILWAUKEE LAKESH 0300   53     150/  6/  6   N/A
S MID LAKE BUOY  0250   56 54  170/  8/ 10 1013.7F   0
KENOSHA   LAKESH 0300   55     150/  3/  3 1013.5S
$$

TC  - TEMPERATURE IN CELSIUS
VSB - VISIBILITY IN STATUTE MILES
WCI - WIND CHILL INDEX
HX  - HEAT INDEX




USA.gov is the U.S. government's official web portal to all federal, state and local government web resources and services.